Weather History for Columbia Airport, CA

Change the Weather History Date:

Monday, August 19, 2013

  Actual Average (KMOD) Record (KMOD)
Temperature  
Mean Temperature 84 °F -  
Max Temperature 104 °F 93 °F 106 °F (1950)
Min Temperature 64 °F 62 °F 49 °F (1959)
Degree Days  
Heating Degree Days 0 0  
Month to date heating degree days 0  
Since 1 June heating degree days 3  
Since 1 July heating degree days 0  
Cooling Degree Days 19 13  
Month to date cooling degree days 256  
Year to date cooling degree days 1191  
Since 1 June cooling degree days 992  
Growing Degree Days 34 (Base 50)    
Moisture  
Dew Point 48 °F    
Average Humidity 31    
Maximum Humidity 52    
Minimum Humidity 12    
Precipitation  
Precipitation 0.00 in 0.00 in 0.19 in (1983)
Month to date precipitation 0.01  
Year to date precipitation 8.76  
Since 1 July precipitation 0.01  
Snow  
Snow 0.00 in - - ()
Month to date snowfall  
Since 1 June snowfall  
Since 1 July snowfall  
Snow Depth -    
Sea Level Pressure  
Sea Level Pressure 29.92 in    
Wind  
Wind Speed 3 mph (WSW)    
Max Wind Speed 13 mph    
Max Gust Speed 18 mph    
Visibility 10 miles    
Events      
T = Trace of Precipitation, MM = Missing Value Source: NWS Daily Summary

Daily Weather History Graph

Daily Weather History Graph

Search for Another Location

Airport:

Trip Planner

Search our weather history database for the weather conditions in past years. The results will help you decide how hot, cold, wet, or windy it might be!

Date:

Astronomy

Aug. 19, 2013 Rise Set
Actual Time 6:20 AM PDT 7:49 PM PDT
Civil Twilight 5:52 AM PDT 8:16 PM PDT
Nautical Twilight 5:19 AM PDT 8:50 PM PDT
Astronomical Twilight 4:44 AM PDT 9:25 PM PDT
Moon 6:44 PM PDT (8/19) 4:46 AM PDT (8/19)
Length of Visible Light 14h 24m
Length of Day
13h 28m
Waxing Gibbous, 98% of the Moon is Illuminated
Aug 19
Waxing Gibbous
Aug 20
Full
Aug 28
Last Quarter
Sep 5
New
Sep 12
First Quarter

Hourly Weather History & Observations

Time (PDT) Temp. Heat Index Dew Point Humidity Pressure Visibility Wind Dir Wind Speed Gust Speed Precip Events Conditions
12:15 AM 73.4 °F - 50.0 °F 44% 29.91 in 10.0 mi North 3.5 mph - N/A   Mostly Cloudy
12:35 AM 73.4 °F - 50.0 °F 44% 29.91 in 10.0 mi ENE 3.5 mph - N/A   Mostly Cloudy
12:55 AM 71.6 °F - 50.0 °F 46% 29.91 in 10.0 mi Calm Calm - N/A   Scattered Clouds
1:15 AM 71.6 °F - 50.0 °F 46% 29.91 in 10.0 mi Calm Calm - N/A   Mostly Cloudy
1:35 AM 71.6 °F - 48.2 °F 43% 29.91 in 10.0 mi Calm Calm - N/A   Overcast
1:55 AM 69.8 °F - 48.2 °F 46% 29.90 in 10.0 mi Calm Calm - N/A   Scattered Clouds
2:15 AM 68.0 °F - 48.2 °F 49% 29.90 in 10.0 mi Calm Calm - N/A   Partly Cloudy
2:35 AM 68.0 °F - 48.2 °F 49% 29.90 in 10.0 mi Calm Calm - N/A   Scattered Clouds
2:55 AM 68.0 °F - 48.2 °F 49% 29.90 in 10.0 mi Calm Calm - N/A   Mostly Cloudy
3:15 AM 68.0 °F - 48.2 °F 49% 29.90 in 10.0 mi Calm Calm - N/A   Overcast
3:35 AM 68.0 °F - 48.2 °F 49% 29.90 in 10.0 mi Calm Calm - N/A   Overcast
3:55 AM 66.2 °F - 48.2 °F 52% 29.89 in 10.0 mi Calm Calm - N/A   Overcast
4:15 AM 66.2 °F - 48.2 °F 52% 29.90 in 10.0 mi Calm Calm - N/A   Overcast
4:35 AM 68.0 °F - 48.2 °F 49% 29.91 in 10.0 mi Calm Calm - N/A   Overcast
4:55 AM 66.2 °F - 48.2 °F 52% 29.91 in 10.0 mi Calm Calm - N/A   Overcast
5:15 AM 66.2 °F - 48.2 °F 52% 29.92 in 10.0 mi Calm Calm - N/A   Mostly Cloudy
5:35 AM 66.2 °F - 48.2 °F 52% 29.92 in 10.0 mi Calm Calm - N/A   Overcast
5:55 AM 66.2 °F - 48.2 °F 52% 29.93 in 10.0 mi Calm Calm - N/A   Overcast
6:15 AM 64.4 °F - 46.4 °F 52% 29.94 in 10.0 mi NE 4.6 mph - N/A   Scattered Clouds
6:35 AM 66.2 °F - 46.4 °F 49% 29.95 in 10.0 mi Calm Calm - N/A   Clear
6:55 AM 66.2 °F - 46.4 °F 49% 29.95 in 10.0 mi Calm Calm - N/A   Clear
7:15 AM 68.0 °F - 48.2 °F 49% 29.95 in 10.0 mi Calm Calm - N/A   Clear
7:35 AM 69.8 °F - 48.2 °F 46% 29.95 in 10.0 mi Calm Calm - N/A   Clear
7:55 AM 73.4 °F - 50.0 °F 44% 29.96 in 10.0 mi Calm Calm - N/A   Clear
8:15 AM 77.0 °F - 50.0 °F 39% 29.96 in 10.0 mi Calm Calm - N/A   Clear
8:35 AM 80.6 °F - 50.0 °F 34% 29.96 in 10.0 mi Calm Calm - N/A   Clear
8:55 AM 84.2 °F - 50.0 °F 30% 29.97 in 10.0 mi Calm Calm - N/A   Clear
9:15 AM 87.8 °F - 48.2 °F 25% 29.97 in 10.0 mi Calm Calm - N/A   Clear
9:35 AM 91.4 °F - 46.4 °F 21% 29.97 in 10.0 mi Calm Calm - N/A   Clear
9:55 AM 91.4 °F - 48.2 °F 23% 29.97 in 10.0 mi South 4.6 mph - N/A   Clear
10:15 AM 93.2 °F - 44.6 °F 19% 29.97 in 10.0 mi Calm Calm - N/A   Clear
10:35 AM 95.0 °F - 41.0 °F 15% 29.97 in 10.0 mi SSW 4.6 mph - N/A   Clear
10:55 AM 95.0 °F - 42.8 °F 16% 29.97 in 10.0 mi SSW 5.8 mph - N/A   Clear
11:15 AM 95.0 °F - 39.2 °F 14% 29.97 in 10.0 mi WSW 4.6 mph - N/A   Clear
11:35 AM 96.8 °F - 41.0 °F 15% 29.97 in 10.0 mi SW 6.9 mph - N/A   Clear
11:55 AM 98.6 °F - 41.0 °F 14% 29.96 in 10.0 mi WSW 8.1 mph - N/A   Clear
12:15 PM 98.6 °F - 41.0 °F 14% 29.96 in 10.0 mi SSW 5.8 mph - N/A   Clear
12:35 PM 98.6 °F - 41.0 °F 14% 29.95 in 10.0 mi WSW 6.9 mph - N/A   Clear
12:55 PM 98.6 °F - 42.8 °F 15% 29.94 in 10.0 mi SSW 6.9 mph - N/A   Clear
1:15 PM 98.6 °F - 44.6 °F 16% 29.94 in 10.0 mi SW 6.9 mph 16.1 mph N/A   Clear
1:35 PM 100.4 °F - 48.2 °F 17% 29.93 in 10.0 mi SSW 6.9 mph - N/A   Clear
1:55 PM 100.4 °F - 48.2 °F 17% 29.92 in 10.0 mi West 8.1 mph - N/A   Clear
2:15 PM 100.4 °F - 46.4 °F 16% 29.92 in 10.0 mi SW 10.4 mph 18.4 mph N/A   Clear
2:35 PM 100.4 °F - 46.4 °F 16% 29.91 in 10.0 mi WSW 9.2 mph 17.3 mph N/A   Clear
2:55 PM 100.4 °F - 46.4 °F 16% 29.90 in 10.0 mi WSW 9.2 mph 17.3 mph N/A   Clear
3:15 PM 104.0 °F - 41.0 °F 12% 29.89 in 10.0 mi West 8.1 mph 16.1 mph N/A   Clear
3:35 PM 102.2 °F - 44.6 °F 14% 29.89 in 10.0 mi West 12.7 mph 17.3 mph N/A   Clear
3:55 PM 100.4 °F - 44.6 °F 15% 29.88 in 10.0 mi West 9.2 mph 16.1 mph N/A   Clear
4:15 PM 100.4 °F - 42.8 °F 14% 29.88 in 10.0 mi West 10.4 mph - N/A   Clear
4:35 PM 100.4 °F - 44.6 °F 15% 29.87 in 10.0 mi West 12.7 mph 18.4 mph N/A   Clear
4:55 PM 98.6 °F - 48.2 °F 18% 29.87 in 10.0 mi West 9.2 mph 18.4 mph N/A   Clear
5:15 PM 98.6 °F - 46.4 °F 17% 29.87 in 10.0 mi West 11.5 mph 18.4 mph N/A   Clear
5:35 PM 96.8 °F - 48.2 °F 19% 29.87 in 10.0 mi WNW 6.9 mph - N/A   Clear
5:55 PM 96.8 °F - 48.2 °F 19% 29.87 in 10.0 mi WNW 4.6 mph 16.1 mph N/A   Clear
6:15 PM 95.0 °F - 48.2 °F 20% 29.87 in 10.0 mi West 8.1 mph - N/A   Clear
6:35 PM 93.2 °F - 48.2 °F 21% 29.87 in 10.0 mi West 8.1 mph - N/A   Clear
6:55 PM 93.2 °F - 48.2 °F 21% 29.88 in 10.0 mi NW 4.6 mph - N/A   Clear
7:15 PM 91.4 °F - 46.4 °F 21% 29.87 in 10.0 mi NW 5.8 mph - N/A   Clear
7:35 PM 91.4 °F - 46.4 °F 21% 29.88 in 10.0 mi NW 5.8 mph - N/A   Clear
7:55 PM 89.6 °F - 46.4 °F 22% 29.88 in 10.0 mi NW 4.6 mph - N/A   Partly Cloudy
8:15 PM 87.8 °F - 46.4 °F 24% 29.89 in 10.0 mi WNW 3.5 mph - N/A   Partly Cloudy
8:35 PM 86.0 °F - 48.2 °F 27% 29.89 in 10.0 mi Calm Calm - N/A   Clear
8:55 PM 84.2 °F - 48.2 °F 29% 29.91 in 10.0 mi Calm Calm - N/A   Mostly Cloudy
9:15 PM 84.2 °F - 48.2 °F 29% 29.93 in 10.0 mi Calm Calm - N/A   Mostly Cloudy
9:35 PM 86.0 °F - 50.0 °F 29% 29.95 in 10.0 mi SSE 8.1 mph 16.1 mph N/A   Mostly Cloudy
9:55 PM 84.2 °F 83.0 °F 55.4 °F 37% 29.96 in 10.0 mi SSE 8.1 mph - N/A   Scattered Clouds
10:15 PM 82.4 °F 81.7 °F 55.4 °F 39% 29.95 in 10.0 mi SE 4.6 mph - N/A   Partly Cloudy
10:35 PM 82.4 °F 81.7 °F 55.4 °F 39% 29.94 in 10.0 mi SE 3.5 mph - N/A   Mostly Cloudy
10:55 PM 82.4 °F 81.7 °F 55.4 °F 39% 29.93 in 10.0 mi East 3.5 mph - N/A   Overcast
11:15 PM 80.6 °F 80.5 °F 55.4 °F 42% 29.92 in 10.0 mi Calm Calm - N/A   Overcast
11:35 PM 80.6 °F 80.5 °F 55.4 °F 42% 29.92 in 10.0 mi Calm Calm - N/A   Overcast
11:55 PM 80.6 °F 80.5 °F 55.4 °F 42% 29.92 in 10.0 mi Calm Calm - N/A   Overcast